Location: Beekmeers
(50.8953°N, 3.6968°E)
Time: 20:27:05
(UTC+00:00)

Resurs 1-4 Rocket - Pass Details

Date: 23 May 2024
Orbit: 798 x 814 km, 98.7° (Epoch: 14 June)

Event Time Altitude Azimuth Distance (km) Brightness Sun altitude
Rises 00:25:21 0° 27° (NNE) 3,318 6.7 -17.8°
Reaches altitude 10° 00:28:30 10° 47° (NE) 2,382 5.3 -17.7°
Maximum altitude 00:31:59 18° 88° (E) 1,894 4.2 -17.6°
Drops below altitude 10° 00:35:27 10° 130° (SE) 2,371 4.3 -17.5°
Enters shadow 00:36:01 - 135° (SE) 2,520 4.4 -17.5°
